Jilin-1 GaoFen 06A 08 xing

operational
NORAD ID: 57019 Int'l Des: NNA 2023-085 Owner: CGSTL Country: CN Constellation: jilin-1
LEOCIRCULARRETROGRADE

关于 Jilin-1 GaoFen 06A 08 xing

正在加载描述...

实时位置

正在加载3D地球...

即将过境

高度历史

Altitude vs Time

uPlot chart will show altitude changes over time

两行轨道根数

1 57019U 23085R 25347.91179472 .00191660 00000-0 13436-2 0 9993
2 57019 97.4731 106.3394 0005001 287.8675 72.2043 15.73627985139284
Epoch: Dec 13, 2025 • Age: 20 hours

当前状态

高度 363.0 km
速度 7.70 km/s
星下点 68.91°N, 49.45°W
发射日期 Jun 15, 2023
运行时间 2.4 years
类型 earth observation

技术详情

分类 Payload
质量 42.00 kg
干质量 42.00 kg
总质量 42.00 kg
长度 1.50 m
直径 1.00 m
跨度 1.50 m
形状 Box
制造商 CGSTL
平台类型 JL-1
阶段状态 In Orbit
所有者/国家 CGSTL/CN

大型星座

Loading constellations...